Location: Zagreb
(45.8000°N, 16.0000°E)
Time: 15:27:08
(UTC+02:00)

Transit 2A - Pass Details

Date: 17 August 2022
Orbit: 601 x 956 km, 66.7° (Epoch: 25 September)

Event Time Altitude Azimuth Distance (km) Brightness Sun altitude
Rises 17:37:28 0° 338° (NNW) 2,863 9.2 23.8°
Reaches altitude 10° 17:41:18 10° 12° (NNE) 1,957 8.0 23.2°
Maximum altitude 17:42:49 12° 32° (NNE) 1,862 7.8 22.9°
Drops below altitude 10° 17:44:20 10° 53° (NE) 1,973 7.7 22.6°
Sets 17:48:14 0° 87° (E) 2,921 8.4 22.0°
